Location: Unspecified
(0.0000°N, 0.0000°E)
Time: 13:53:04
(UTC+00:00)

Transit 2A - Pass Details

Date: 28 November 2019
Orbit: 602 x 957 km, 66.7° (Epoch: 08 December)

Event Time Altitude Azimuth Distance (km) Brightness Sun altitude
Rises 08:14:10 0° 198° (SSW) 3,511 9.5 33.7°
Reaches altitude 10° 08:16:46 10° 197° (SSW) 2,524 8.9 34.3°
Maximum altitude 08:22:37 83° 110° (ESE) 823 7.0 35.6°
Drops below altitude 10° 08:27:51 10° 22° (NNE) 2,274 8.5 36.8°
Sets 08:30:06 0° 21° (NNE) 3,141 9.1 37.3°
